Location: Newark
(48.8604°N, 2.3376°E)
Time: 10:46:42
(UTC+00:00)

RS-44 - Visible Passes

Search period start: 06 December 2021 00:00
Search period end: 16 December 2021 00:00
Orbit: 1174 x 1511 km, 82.5° (Epoch: 05 December)

Date Brightness Start Highest point End Pass type
(mag) Time Alt. Az. Time Alt. Az. Time Alt. Az.
06 Dec ? 04:21:31 10° N 04:27:41 26° ENE 04:34:09 10° ESE visible
06 Dec ? 06:14:20 10° NNW 06:21:57 79° W 06:30:06 10° S visible
06 Dec ? 17:09:09 10° ESE 17:13:02 16° ENE 17:13:12 16° ENE visible
06 Dec ? 18:58:01 10° S 19:05:13 80° E 19:05:56 72° NE visible
06 Dec ? 20:54:05 10° WSW 21:06:05 - N 20:58:41 23° WNW visible
07 Dec ? 04:44:55 10° N 04:51:55 38° ENE 04:59:21 10° SE visible
07 Dec ? 06:38:16 10° NNW 06:45:37 54° W 06:53:30 10° SSW visible
07 Dec ? 17:30:43 10° SE 17:36:16 25° E 17:39:03 20° NE visible
07 Dec ? 19:21:50 10° SSW 19:29:01 70° WNW 19:36:15 10° N visible
07 Dec ? 21:20:02 10° W 21:24:04 15° NW 21:24:41 15° NW visible
08 Dec ? 03:17:09 10° NNE 03:20:37 13° NE 03:24:09 10° ENE visible
08 Dec ? 05:08:28 10° N 05:15:59 56° ENE 05:24:01 10° SSE visible
08 Dec ? 17:53:10 10° SSE 17:59:39 38° E 18:06:11 10° NNE visible
08 Dec ? 19:46:07 10° SW 19:52:58 46° WNW 19:59:55 10° N visible
09 Dec ? 03:39:47 10° NNE 03:45:12 20° ENE 03:50:48 10° ESE visible
09 Dec ? 05:32:10 10° N 05:39:54 80° E 05:48:12 10° SSE visible
09 Dec ? 16:30:24 10° E 16:31:28 10° ENE 16:32:31 10° ENE visible
09 Dec ? 18:16:11 10° S 18:23:10 59° E 18:30:16 10° NNE visible
09 Dec ? 20:10:53 10° SW 20:17:06 31° WNW 20:23:27 10° N visible
10 Dec ? 04:03:00 10° N 04:09:34 29° ENE 04:16:29 10° ESE visible
10 Dec ? 05:56:00 10° NNW 06:03:41 72° W 06:11:56 10° S visible
10 Dec ? 16:50:07 10° ESE 16:54:33 18° ENE 16:59:02 10° NE visible
10 Dec ? 18:39:40 10° S 18:46:51 88° E 18:54:10 10° N visible
10 Dec ? 20:36:13 10° WSW 20:41:26 21° WNW 20:46:44 10° N visible
11 Dec ? 04:26:28 10° N 04:33:46 42° ENE 04:41:31 10° SE visible
11 Dec ? 06:19:57 10° NNW 06:27:19 49° W 06:35:12 10° SSW visible
11 Dec ? 17:11:59 10° SE 17:17:49 28° E 17:23:44 10° NNE visible
11 Dec ? 19:03:36 10° SSW 19:10:41 63° WNW 19:17:56 10° N visible
11 Dec ? 21:02:25 10° W 21:05:58 14° NW 21:09:34 10° NNW visible
12 Dec ? 02:58:18 10° NNE 03:02:36 15° NE 03:06:59 10° E visible
12 Dec ? 04:50:04 10° N 04:57:47 62° ENE 05:06:03 10° SSE visible
12 Dec ? 06:44:06 10° NNW 06:50:50 33° W 06:57:58 10° SW visible
12 Dec ? 17:34:35 10° SSE 17:41:14 43° E 17:47:59 10° NNE visible
12 Dec ? 19:27:59 10° SW 19:34:42 42° WNW 19:41:35 10° N visible
13 Dec ? 03:21:13 10° N 03:27:08 23° ENE 03:33:17 10° ESE visible
13 Dec ? 05:13:49 10° N 05:21:41 88° E 05:30:07 10° S visible
13 Dec ? 17:57:44 10° S 18:04:47 66° E 18:12:01 10° NNE visible
13 Dec ? 19:52:52 10° WSW 19:58:53 28° WNW 20:05:04 10° N visible
14 Dec ? 03:44:31 10° N 03:51:27 33° ENE 03:58:47 10° SE visible
14 Dec ? 05:37:40 10° NNW 05:45:25 65° W 05:53:44 10° S visible
14 Dec ? 16:31:10 10° ESE 16:36:04 20° ENE 16:41:03 10° NE visible
14 Dec ? 18:21:20 10° S 18:28:30 84° W 18:35:54 10° N visible
14 Dec ? 20:18:23 10° W 20:23:17 19° NW 20:28:18 10° NNW visible
15 Dec ? 02:17:25 10° NNE 02:19:52 11° NE 02:22:20 10° ENE visible
15 Dec ? 04:08:02 10° N 04:15:36 47° ENE 04:23:40 10° SE visible
15 Dec ? 06:01:41 10° NNW 06:09:02 44° W 06:16:53 10° SSW visible
15 Dec ? 16:53:16 10° SE 16:59:21 31° E 17:05:37 10° NNE visible
15 Dec ? 18:45:22 10° SSW 18:52:23 56° WNW 18:59:39 10° N visible
15 Dec ? 20:44:54 10° WNW 20:47:53 13° NW 20:50:56 10° NNW visible
